Temperature
15 16 16 15 15 15 15 15 15 15 15 14 14 14 14 14 13 13 13 13 13 12 12 12 12 12 12 12 11 11 11 11 10 10 10 10 10 10 10 9 9 9 9
15 15 15 15 15 15 15 15 15 15 14 14 14 14 14 13 13 13 12 12 12 12 12 12 12 12 11 11 11 11 10 10 10 9 9 9 9 9 9 9 9 9 8
14 14 15 15 14 14 15 15 14 14 14 14 14 13 13 12 12 12 12 12 12 12 12 12 11 11 11 11 11 10 10 10 9 9 9 8 8 8 8 8 8 8 8
14 14 14 14 14 14 14 14 14 14 14 13 13 13 13 12 12 12 12 12 11 11 11 11 11 11 11 10 10 10 9 9 9 9 8 8 8 7 7 7 8 7 7
14 14 14 14 14 14 14 14 13 13 13 13 13 13 12 12 12 12 12 11 11 11 11 11 11 10 10 10 10 9 9 9 8 8 8 8 7 7 6 6 7 7 7
13 14 14 14 13 13 13 13 13 13 13 13 12 12 12 12 12 11 11 11 11 11 11 10 10 10 10 10 9 9 9 8 8 8 7 7 7 7 6 6 6 6 6
13 13 13 13 13 13 13 12 12 12 12 12 12 12 12 12 11 11 11 11 11 11 10 10 10 9 9 9 9 8 8 8 8 7 7 7 6 6 6 5 5 5 5
12 12 12 13 13 12 12 12 12 12 12 12 12 11 11 11 11 11 11 11 10 10 10 10 9 9 9 9 8 8 8 8 7 7 7 6 6 6 5 5 4 4 4
12 12 12 12 12 12 12 12 11 11 11 11 11 11 11 10 10 10 10 10 10 10 9 9 9 9 8 8 8 8 7 7 7 7 6 6 6 6 5 5 4 3 3
11 11 11 11 11 11 11 11 11 11 11 11 11 11 10 10 10 10 10 10 10 9 9 9 8 8 8 8 7 7 7 7 6 6 6 6 5 5 5 4 4 3 2
10 10 10 11 11 11 11 11 10 10 10 10 10 10 10 10 10 9 9 9 9 9 8 8 8 8 7 7 7 7 6 6 6 6 6 5 5 5 4 4 3 3 2
9 9 9 10 10 10 10 10 10 10 10 10 10 10 9 9 9 9 9 8 8 8 8 8 7 7 7 6 6 6 6 6 6 5 5 5 5 4 4 3 3 2 2
9 9 9 9 9 9 9 9 9 9 9 9 9 9 9 9 9 8 8 8 8 7 7 7 6 6 6 6 6 6 5 5 5 5 5 4 4 3 3 3 2 2 1
8 8 8 8 8 8 8 8 8 8 8 8 8 8 8 8 8 8 7 7 7 7 6 6 6 6 5 5 5 5 5 4 4 4 4 4 3 3 2 2 2 1 1
7 7 7 7 7 7 7 8 8 8 8 8 8 7 7 7 7 6 6 6 6 6 6 5 5 5 5 5 4 4 4 4 4 3 3 3 2 2 2 1 1 1 0
6 6 6 6 6 7 7 7 7 7 7 7 7 7 6 6 6 6 5 5 5 5 5 5 4 4 4 4 4 3 3 3 3 3 2 2 2 1 1 1 0 -0 -0
5 5 5 6 6 6 6 6 6 6 6 6 6 6 6 5 5 5 5 5 5 4 4 4 4 4 3 3 3 3 2 2 2 2 2 1 1 1 0 0 -0 -0 -1
5 5 5 5 5 5 6 6 5 5 5 5 5 5 5 5 4 4 4 4 4 4 3 3 3 3 3 2 2 2 2 1 1 1 1 0 0 -0 -0 -1 -1 -1 -1
4 4 5 5 5 5 5 5 5 5 4 4 4 4 4 4 4 3 3 3 3 3 3 2 2 2 2 2 2 1 1 1 0 0 -0 -1 -1 -1 -1 -1 -1 -1 -1
4 4 4 4 4 4 4 4 4 4 4 4 3 3 3 3 3 3 3 2 2 2 2 2 2 2 1 1 1 0 -0 -0 -0 -1 -1 -1 -1 -2 -2 -2 -2 -2 -2
3 3 3 3 3 3 3 3 3 3 3 3 3 3 2 2 2 2 2 2 2 1 1 1 1 1 1 0 0 -1 -1 -1 -1 -1 -1 -2 -2 -2 -2 -2 -3 -3 -3
3 3 3 3 3 2 2 2 2 2 2 2 2 2 2 1 1 1 1 1 1 1 1 0 0 0 -0 -1 -1 -2 -2 -2 -2 -2 -2 -2 -2 -3 -3 -3 -3 -3 -3
2 2 2 2 2 2 2 2 1 1 1 1 1 1 1 1 1 1 1 0 0 0 -0 -0 -1 -1 -1 -1 -2 -2 -2 -2 -3 -3 -3 -3 -3 -3 -3 -3 -3 -3 -3
1 1 1 1 1 1 1 0 0 0 0 0 0 -0 -0 -0 -0 -0 -0 -0 -0 -1 -1 -1 -1 -2 -2 -2 -2 -3 -3 -3 -3 -3 -3 -3 -3 -3 -3 -3 -4 -4 -4
-0 -0 -0 -0 -0 -0 -0 -0 -1 -1 -1 -1 -1 -1 -1 -1 -1 -1 -1 -1 -1 -1 -1 -2 -2 -2 -2 -3 -3 -3 -3 -3 -4 -4 -4 -4 -4 -4 -4 -4 -4 -4 -4
-1 -1 -1 -1 -1 -1 -1 -1 -1 -1 -1 -1 -2 -2 -2 -2 -2 -2 -2 -2 -2 -2 -2 -2 -3 -3 -3 -3 -3 -4 -4 -4 -4 -4 -4 -4 -4 -5 -5 -5 -4 -5 -5
Wind_Speed
7 6 6 6 6 6 7 8 8 8 7 6 5 5 4 4 3 3 5 6 6 7 6 3 3 3 3 2 2 2 2 1 1 2 3 3 3 2 2 2 2 3 3
5 5 6 6 7 7 8 8 9 9 8 7 6 5 5 4 3 3 3 5 6 6 5 5 4 3 3 3 3 2 2 1 2 2 1 2 4 3 3 2 2 2 3
10 8 7 7 7 8 8 9 9 9 8 7 5 4 3 2 1 2 2 3 5 5 5 5 4 4 3 3 3 3 3 1 1 1 2 1 2 3 3 2 2 2 2
8 8 8 8 8 8 7 7 8 8 8 8 8 8 6 5 4 4 3 3 4 4 5 5 5 4 3 3 3 2 2 3 1 1 0 1 2 1 3 3 2 3 3
9 9 9 9 7 7 6 6 7 7 7 8 9 8 6 5 4 3 4 3 2 3 4 5 5 4 3 3 3 2 2 2 2 1 1 0 1 1 2 5 4 4 3
8 8 7 6 5 5 5 6 7 6 7 8 8 9 9 7 6 5 4 3 2 2 3 4 4 4 3 3 3 3 3 2 2 2 1 1 1 2 2 4 6 6 5
7 7 7 7 6 6 6 6 7 6 7 7 7 8 9 9 9 7 6 5 3 2 3 4 4 3 3 3 3 3 2 3 3 2 2 2 2 2 2 3 5 6 5
7 8 8 8 8 8 7 7 7 6 6 7 7 7 7 6 6 6 6 6 5 4 4 4 4 4 3 3 3 2 2 2 2 2 2 2 2 2 2 3 4 6 6
7 7 7 7 7 7 7 8 7 6 5 6 6 6 6 6 6 5 5 4 4 4 4 4 4 3 3 3 3 2 2 2 2 2 2 2 2 2 2 2 3 4 7
5 5 5 5 5 5 5 5 6 6 5 5 6 6 5 6 5 5 5 4 4 4 4 4 3 3 3 3 3 2 2 2 2 2 1 2 2 2 2 2 3 3 5
5 5 4 4 4 4 4 4 4 4 4 4 5 5 5 5 5 4 4 4 4 4 4 4 3 3 2 2 2 2 2 2 1 2 2 3 3 3 2 2 2 3 4
4 4 4 4 4 4 4 4 4 4 4 4 4 5 5 5 5 4 4 4 4 4 4 4 3 2 2 2 2 2 2 2 2 2 2 3 3 3 3 3 3 4 5
4 4 4 4 4 4 4 4 4 4 4 4 5 4 5 5 5 4 4 4 4 3 3 3 3 2 2 1 1 2 2 2 2 2 3 3 3 4 4 4 5 5 5
3 3 3 3 3 3 3 4 3 3 4 4 5 4 4 4 4 4 4 4 4 3 3 2 2 1 1 1 1 1 1 1 2 2 3 3 4 5 5 5 5 5 5
3 3 3 2 3 3 3 3 3 3 4 5 5 4 3 4 4 4 4 3 3 3 2 2 1 1 1 1 1 1 1 1 2 2 3 4 5 6 6 5 5 5 5
3 3 3 3 3 3 2 3 3 2 3 4 4 4 4 4 4 3 3 3 3 3 2 2 1 0 1 1 2 2 1 1 2 3 3 4 5 6 8 9 10 8 7
2 2 2 2 2 2 3 3 3 3 4 4 4 4 4 4 3 3 3 3 3 2 2 1 1 0 1 2 2 3 2 1 2 3 4 4 5 7 5 8 10 10 11
2 2 1 1 1 2 3 3 3 4 4 3 3 3 3 4 3 3 3 3 2 2 1 1 1 0 2 3 3 3 2 1 2 3 3 4 6 6 7 6 6 7 8
1 1 2 2 2 2 3 4 4 3 3 3 3 3 3 4 4 3 3 2 2 1 1 1 1 0 2 3 3 3 1 1 3 3 4 5 6 9 10 7 6 8 8
2 2 2 3 3 2 3 4 3 3 2 2 2 2 3 4 4 3 3 2 2 1 1 0 0 1 2 3 4 3 1 2 3 3 4 7 8 10 11 6 6 8 8
3 3 3 3 2 2 4 4 3 2 1 2 2 2 2 2 3 3 2 2 2 1 1 0 1 1 2 3 4 4 2 2 3 4 4 5 10 11 11 9 6 9 9
4 3 3 3 2 2 4 3 2 1 1 2 2 2 1 1 2 3 2 2 2 2 1 0 1 1 2 3 4 5 5 5 3 4 5 6 10 11 11 8 9 11 9
3 3 3 3 3 3 3 3 1 1 2 2 2 1 1 1 2 3 2 2 2 2 1 1 1 2 2 3 5 5 6 6 4 5 7 9 10 10 8 8 10 8 5
3 3 3 3 3 2 2 2 1 1 2 2 1 1 1 1 1 1 1 2 2 2 2 2 2 2 2 2 3 3 4 5 5 5 6 8 8 7 7 7 6 4 4
2 3 3 2 2 2 2 2 2 2 2 1 1 1 1 1 1 0 1 1 2 3 3 2 2 2 3 4 6 5 4 4 4 4 3 3 4 4 4 4 4 4 4
3 3 3 3 2 2 2 2 2 2 2 2 1 1 1 1 0 1 2 3 2 2 3 3 3 3 4 6 6 6 7 7 6 4 3 4 4 5 5 5 5 5 5
Wind_Direction
218 198 183 171 161 167 168 168 167 170 162 162 163 165 176 177 173 165 154 154 151 149 142 143 135 134 145 151 141 123 84 43 35 46 357 339 340 345 340 357 4 357 347
202 192 178 171 172 175 178 176 174 175 174 174 177 177 173 174 176 165 149 153 154 156 152 151 157 152 143 133 135 124 121 68 52 93 54 347 338 337 330 321 327 330 354
195 193 185 184 177 182 184 183 180 176 174 166 152 138 118 103 122 151 174 168 158 160 156 157 156 155 155 162 166 155 146 157 11 81 135 150 251 299 304 301 310 323 334
194 191 188 185 186 191 185 178 178 175 172 165 162 161 168 175 189 182 179 169 157 158 160 159 155 158 160 164 174 170 165 151 176 332 132 178 189 228 299 313 313 311 306
194 192 192 188 185 182 177 175 172 173 171 168 169 167 168 173 167 155 155 161 161 160 162 161 157 161 164 172 169 167 165 170 177 187 217 304 333 227 241 290 306 309 290
197 194 188 176 174 169 169 168 167 174 172 168 170 171 170 167 160 163 169 172 167 160 162 157 155 160 163 171 173 168 170 178 174 185 191 200 216 240 244 272 292 298 296
186 182 178 177 176 171 172 170 164 173 175 170 173 176 176 173 174 176 177 173 171 179 185 166 163 166 169 170 162 163 180 184 185 199 222 225 235 237 243 262 284 292 294
183 182 183 183 181 178 174 169 166 169 174 174 176 176 173 173 178 179 176 179 185 189 178 168 166 165 167 168 160 169 190 186 198 217 224 241 253 243 238 248 275 296 298
179 177 178 178 178 176 176 171 166 166 172 176 171 170 171 171 175 176 171 174 174 171 162 159 161 163 158 161 164 177 194 188 206 219 230 254 268 261 252 248 243 261 288
165 164 166 167 170 168 164 160 163 167 168 173 176 170 170 171 170 163 165 166 166 158 155 156 156 154 157 163 162 180 191 183 222 227 230 262 272 275 271 260 264 254 260
160 157 151 143 138 134 137 140 147 149 149 154 158 155 158 155 147 151 159 161 155 153 154 157 156 162 173 170 169 207 206 197 239 267 259 272 277 281 285 279 272 269 262
142 141 138 129 126 128 129 132 135 140 147 148 146 149 143 139 141 147 152 150 147 149 151 148 146 156 162 162 183 212 222 213 237 261 268 277 286 283 283 279 274 274 269
109 113 121 126 131 133 130 129 132 141 141 136 137 139 139 142 146 149 143 138 136 135 134 135 146 162 173 178 206 216 226 235 252 260 265 277 278 279 279 277 276 277 283
124 120 119 127 130 127 127 128 128 132 134 129 129 138 150 148 145 139 134 133 132 133 134 137 150 159 167 185 201 202 215 254 278 277 274 277 272 271 275 279 277 281 284
122 130 133 132 126 115 115 122 122 117 125 127 129 140 137 131 130 131 132 127 126 126 128 123 111 125 181 203 198 206 233 248 283 295 289 285 291 290 290 291 285 287 286
161 147 130 128 132 134 135 129 127 125 120 129 135 136 131 130 132 137 133 126 119 116 116 128 138 142 298 283 281 276 240 261 273 290 298 300 300 301 303 302 299 293 288
132 140 144 143 145 148 145 149 148 128 121 127 131 135 136 134 136 134 128 129 127 120 124 143 142 191 266 293 300 309 309 269 277 286 294 303 304 306 295 295 299 296 293
106 108 107 95 96 101 107 113 112 120 127 130 135 139 138 139 137 137 143 140 137 142 149 166 173 195 287 308 318 324 349 309 293 288 282 286 289 290 293 291 295 292 290
104 111 106 102 98 97 106 108 104 110 118 130 141 148 153 152 150 155 162 159 147 151 167 188 189 242 299 313 316 319 316 304 296 289 287 288 285 295 304 304 299 299 296
77 79 71 72 75 74 105 110 111 109 120 143 151 145 151 158 166 173 171 160 155 169 166 165 283 272 289 296 308 316 295 292 295 297 294 297 300 302 307 303 295 295 295
65 73 74 69 62 87 110 112 111 126 149 128 119 121 134 161 172 168 166 156 145 124 105 352 302 276 285 296 304 306 301 275 287 295 299 297 305 307 308 307 295 293 301
51 60 68 53 40 80 112 114 117 116 91 100 108 117 120 158 156 155 160 154 147 138 163 247 304 300 288 301 299 305 308 303 293 291 290 292 303 307 309 308 306 310 315
50 52 69 56 35 50 107 121 105 91 102 104 116 128 125 130 153 156 159 156 161 176 217 224 267 297 297 296 304 305 308 307 302 289 293 301 308 311 309 308 312 316 311
53 57 65 63 36 38 70 91 80 85 101 108 116 126 131 116 109 149 174 182 196 205 224 237 259 286 295 293 290 288 297 303 304 303 302 309 311 311 309 310 313 312 299
40 55 66 58 37 37 44 58 76 99 101 92 90 87 92 104 54 12 239 230 223 220 223 228 235 253 274 280 294 300 292 294 294 310 310 314 313 313 311 310 308 305 303
47 52 52 51 30 34 49 56 80 106 114 94 68 63 68 61 61 26 1 357 339 314 312 308 297 291 295 304 307 309 310 312 316 323 309 302 301 300 302 306 309 306 303
Height
1476 1478 1481 1483 1486 1488 1490 1492 1495 1497 1499 1501 1503 1505 1507 1509 1511 1512 1514 1515 1516 1518 1519 1519 1520 1520 1521 1521 1521 1521 1521 1521 1521 1520 1519 1519 1518 1518 1517 1517 1516 1515 1514
1471 1474 1476 1479 1481 1483 1486 1488 1491 1493 1496 1498 1500 1502 1504 1506 1508 1509 1511 1513 1514 1515 1516 1516 1517 1518 1518 1518 1518 1519 1518 1518 1518 1518 1516 1516 1516 1514 1514 1514 1512 1511 1510
1466 1469 1472 1474 1477 1479 1481 1484 1487 1490 1492 1495 1497 1499 1501 1503 1505 1506 1508 1509 1511 1512 1513 1514 1514 1515 1515 1516 1516 1516 1516 1516 1516 1516 1516 1515 1512 1511 1510 1510 1509 1508 1507
1462 1465 1467 1469 1472 1475 1478 1481 1483 1486 1489 1491 1493 1495 1497 1498 1500 1502 1504 1506 1507 1509 1510 1511 1512 1512 1513 1513 1513 1514 1514 1514 1513 1513 1513 1513 1512 1510 1506 1506 1505 1504 1503
1458 1460 1463 1465 1469 1472 1475 1477 1480 1483 1485 1488 1490 1492 1494 1496 1498 1500 1501 1503 1504 1505 1507 1508 1508 1509 1510 1510 1510 1510 1511 1511 1510 1510 1510 1509 1509 1508 1506 1501 1500 1500 1499
1454 1457 1460 1463 1465 1469 1471 1474 1477 1479 1482 1484 1486 1488 1490 1492 1494 1496 1498 1499 1501 1502 1503 1504 1505 1506 1506 1507 1507 1507 1507 1507 1507 1507 1506 1506 1505 1504 1503 1499 1496 1494 1494
1451 1453 1456 1459 1462 1465 1468 1471 1473 1476 1478 1481 1483 1485 1487 1489 1490 1492 1494 1495 1497 1498 1499 1501 1501 1502 1503 1504 1504 1504 1504 1504 1503 1503 1503 1502 1501 1501 1499 1497 1493 1490 1488
1447 1450 1453 1456 1459 1462 1464 1467 1470 1472 1475 1477 1480 1482 1484 1486 1487 1489 1491 1492 1493 1494 1496 1497 1498 1499 1499 1500 1500 1500 1500 1500 1499 1499 1499 1498 1497 1497 1496 1494 1491 1487 1483
1444 1447 1449 1452 1455 1458 1461 1464 1467 1469 1472 1474 1476 1478 1480 1482 1484 1486 1488 1489 1490 1491 1492 1493 1494 1495 1496 1496 1496 1496 1496 1496 1495 1495 1495 1494 1493 1492 1491 1490 1488 1486 1480
1442 1445 1447 1450 1453 1456 1459 1462 1464 1466 1469 1471 1473 1475 1477 1479 1481 1482 1484 1485 1486 1487 1489 1490 1491 1491 1492 1492 1493 1492 1492 1492 1491 1491 1490 1489 1488 1487 1486 1485 1484 1482 1479
1440 1443 1446 1448 1451 1454 1456 1459 1461 1463 1465 1467 1469 1472 1473 1475 1477 1479 1480 1482 1483 1484 1485 1486 1487 1488 1488 1488 1488 1488 1488 1487 1487 1486 1486 1485 1484 1482 1481 1480 1478 1476 1474
1440 1442 1445 1447 1449 1451 1454 1456 1458 1461 1463 1465 1467 1468 1470 1472 1474 1475 1477 1478 1480 1481 1482 1483 1483 1484 1484 1484 1484 1484 1484 1483 1482 1482 1481 1480 1479 1477 1476 1474 1472 1470 1468
1440 1442 1444 1446 1448 1450 1452 1454 1456 1458 1460 1462 1464 1466 1467 1469 1471 1472 1474 1475 1476 1477 1478 1479 1479 1479 1480 1480 1480 1480 1479 1478 1478 1477 1476 1475 1474 1472 1470 1468 1466 1464 1462
1441 1442 1443 1445 1447 1448 1450 1452 1454 1456 1458 1460 1462 1463 1465 1466 1468 1469 1471 1472 1473 1474 1474 1475 1475 1475 1476 1476 1476 1475 1474 1474 1473 1472 1471 1470 1468 1467 1465 1463 1461 1459 1456
1441 1442 1443 1444 1446 1447 1449 1450 1452 1454 1456 1458 1459 1461 1462 1464 1465 1467 1468 1469 1470 1470 1471 1471 1471 1472 1472 1472 1471 1471 1470 1469 1468 1467 1466 1465 1464 1462 1460 1458 1456 1454 1451
1441 1442 1443 1444 1445 1446 1447 1449 1451 1452 1454 1455 1457 1459 1460 1461 1462 1464 1465 1466 1466 1467 1467 1468 1468 1468 1468 1468 1467 1467 1466 1464 1463 1462 1461 1460 1458 1457 1455 1453 1451 1449 1446
1441 1442 1443 1444 1445 1446 1447 1448 1449 1451 1452 1453 1454 1456 1457 1459 1460 1461 1462 1462 1463 1463 1464 1464 1464 1464 1464 1464 1463 1463 1462 1460 1459 1457 1456 1454 1453 1451 1449 1447 1445 1443 1441
1441 1442 1443 1443 1444 1445 1446 1447 1448 1449 1450 1451 1452 1453 1455 1456 1457 1458 1459 1459 1460 1460 1460 1461 1461 1460 1460 1460 1459 1458 1457 1455 1454 1453 1451 1449 1447 1446 1444 1441 1439 1436 1434
1441 1441 1442 1443 1443 1444 1444 1445 1446 1447 1448 1449 1450 1451 1452 1453 1454 1455 1456 1456 1457 1457 1457 1457 1457 1457 1456 1456 1455 1454 1452 1451 1449 1448 1447 1445 1443 1441 1439 1436 1433 1430 1428
1440 1441 1441 1442 1442 1442 1443 1444 1444 1445 1446 1447 1448 1449 1450 1451 1451 1452 1453 1453 1453 1454 1454 1453 1454 1453 1452 1452 1451 1450 1448 1446 1445 1443 1442 1440 1438 1436 1434 1432 1428 1425 1422
1439 1439 1440 1440 1441 1441 1442 1442 1443 1443 1444 1445 1446 1447 1448 1448 1449 1449 1450 1450 1450 1450 1450 1450 1450 1449 1449 1448 1447 1446 1445 1443 1441 1439 1437 1435 1434 1431 1429 1427 1424 1421 1418
1438 1438 1439 1439 1440 1440 1440 1440 1441 1442 1442 1443 1443 1444 1445 1446 1446 1446 1447 1447 1447 1447 1447 1446 1445 1445 1445 1444 1443 1442 1441 1440 1438 1435 1433 1431 1429 1427 1424 1422 1419 1416 1413
1437 1437 1438 1438 1438 1439 1439 1439 1439 1440 1440 1441 1441 1442 1442 1443 1443 1444 1444 1444 1444 1443 1443 1442 1441 1441 1441 1440 1439 1438 1437 1435 1434 1431 1429 1427 1425 1422 1419 1417 1414 1411 1408
1436 1436 1436 1436 1437 1437 1437 1438 1438 1438 1439 1439 1439 1440 1440 1440 1441 1441 1441 1441 1441 1440 1439 1439 1438 1437 1437 1436 1435 1434 1432 1431 1429 1427 1425 1423 1420 1418 1415 1412 1409 1407 1404
1435 1435 1435 1435 1435 1435 1436 1436 1437 1437 1437 1437 1437 1437 1437 1437 1438 1438 1438 1438 1438 1438 1437 1436 1436 1435 1433 1433 1432 1431 1429 1427 1425 1423 1420 1417 1415 1412 1410 1407 1405 1402 1400
1434 1434 1434 1434 1434 1434 1434 1434 1435 1435 1435 1435 1435 1435 1435 1435 1435 1435 1435 1436 1436 1436 1435 1434 1434 1432 1431 1430 1429 1427 1426 1424 1422 1419 1416 1413 1411 1408 1406 1403 1401 1399 1396